EST,Max TemperatureF,Mean TemperatureF,Min TemperatureF,Max Dew PointF,MeanDew PointF,Min DewpointF,Max Humidity, Mean Humidity, Min Humidity, Max Sea Level PressureIn, Mean Sea Level PressureIn, Min Sea Level PressureIn, Max VisibilityMiles, Mean VisibilityMiles, Min VisibilityMiles, Max Wind SpeedMPH, Mean Wind SpeedMPH, Max Gust SpeedMPH,PrecipitationIn, CloudCover, Events, WindDirDegrees
2012-11-1,,,,,,,,,,,,,,,,,,,,,,
2012-11-2,,,,,,,,,,,,,,,,,,,,,,
2012-11-3,,,,,,,,,,,,,,,,,,,,,,
2012-11-4,,,,,,,,,,,,,,,,,,,,,,
2012-11-5,,,,,,,,,,,,,,,,,,,,,,
2012-11-6,,,,,,,,,,,,,,,,,,,,,,
2012-11-7,,,,,,,,,,,,,,,,,,,,,,
2012-11-8,58,49,40,32,23,2,69,45,10,30.09,30.03,29.98,10,10,10,6,3,,0.00,0,,289
2012-11-9,60,46,32,40,30,21,83,61,22,30.28,30.21,30.09,10,10,10,8,1,,0.00,0,,334
2012-11-10,70,54,37,44,34,21,81,59,15,30.42,30.34,30.27,10,10,10,6,1,,0.00,0,,160
2012-11-11,73,56,39,54,45,34,81,71,37,30.51,30.46,30.42,10,9,0,6,1,,0.00,1,,154
2012-11-12,78,64,50,64,56,45,81,74,52,30.47,30.34,30.22,10,9,1,12,3,17,0.02,2,Rain,138
2012-11-13,64,56,46,58,53,41,82,80,80,30.32,30.24,30.18,10,9,5,16,5,22,0.02,6,Rain,26
2012-11-14,52,47,42,43,39,35,76,72,69,30.44,30.39,30.34,10,10,10,14,10,20,0.00,8,,16
2012-11-15,55,48,40,48,41,33,81,78,74,30.35,30.26,30.21,10,10,5,14,7,20,0.22,6,Rain,1
2012-11-16,58,50,41,43,39,34,81,71,47,30.37,30.29,30.22,10,10,10,12,8,17,0.00,2,,7
2012-11-17,58,48,37,48,41,32,81,75,63,30.44,30.40,30.36,10,10,10,18,9,24,0.00,2,,13
2012-11-18,60,55,50,52,49,45,81,78,70,30.40,30.34,30.27,10,10,5,20,13,31,0.01,6,Rain,21
2012-11-19,58,55,52,52,48,47,81,81,77,30.26,30.20,30.13,10,10,5,17,13,25,0.00,8,Rain,360
2012-11-20,58,52,46,50,47,41,81,78,72,30.14,30.09,30.05,10,10,7,12,8,18,0.00,7,,7
2012-11-21,60,51,42,44,40,37,81,72,44,30.16,30.11,30.07,10,10,5,14,6,18,0.00,2,,1
2012-11-22,60,50,40,47,41,35,81,72,50,30.19,30.15,30.11,10,10,10,16,8,21,0.00,1,,356
2012-11-23,65,50,35,43,32,16,83,57,15,30.15,30.02,29.85,10,10,5,10,2,,0.00,0,,221
2012-11-24,52,43,33,43,26,16,69,47,25,30.12,29.97,29.84,10,10,10,12,5,16,0.00,1,,307
2012-11-25,52,38,25,27,18,2,80,51,14,30.19,30.12,30.06,10,10,10,12,3,16,0.00,0,,239
2012-11-26,63,48,32,38,27,4,84,57,10,30.22,30.17,30.11,10,10,2,6,2,,0.00,0,,234
2012-11-27,61,48,36,46,37,28,82,67,29,30.22,30.17,30.10,10,9,4,10,2,,0.04,3,Rain,258
2012-11-28,51,41,32,38,32,28,83,71,42,30.39,30.30,30.21,10,9,3,14,7,24,0.00,1,,344
2012-11-29,57,41,27,35,27,15,83,66,20,30.50,30.43,30.38,10,9,5,8,1,,0.00,0,,235
2012-11-30,60,46,32,42,32,27,83,67,28,30.44,30.38,30.33,10,9,4,5,0,,0.00,0,,160